Regional Weather Roundup
Issued by NWS

Home | Current Version | Previous Version | Text Only | Print | Product List | Glossary Off
Versions: 1 2 3 4 5 6 7 8 9 10 11 12 13 14 15 16 17 18 19 20 21 22 23 24 25 26 27 28 29 30 31 32 33 34 35 36 37 38 39 40 41 42 43 44 45 46 47 48 49 50

000
ASUS43 KLOT 250704
RWRIL

ILLINOIS REGIONAL WEATHER ROUNDUP
NATIONAL WEATHER SERVICE CHICAGO/ROMEOVILLE IL
200 AM CDT SUN JUN 25 2017

NOTE: "FAIR" INDICATES FEW OR NO CLOUDS BELOW 12,000 FEET WITH NO
SIGNIFICANT WEATHER AND/OR OBSTRUCTIONS TO VISIBILITY.

* THESE STATIONS ARE NOT UNDER NWS QUALITY CONTROL. THEY ALSO MAY NOT
  REPORT WEATHER SUCH AS PRECIPITATION OR FOG.

ILZ001-002-007-009-015-016-024-250800-
NORTHWEST ILLINOIS

CITY           SKY/WX    TMP DP  RH WIND       PRES   REMARKS
MOLINE         CLEAR     54  50  86 S3        30.11S
STERLING*      CLEAR     54  52  93 SW5       30.10S
SAVANNA*       CLEAR     50  50  99 CALM      30.10S FOG
$$

ILZ003-004-008-010-011-017-018-250800-
NORTH CENTRAL ILLINOIS

CITY           SKY/WX    TMP DP  RH WIND       PRES   REMARKS
ROCKFORD       CLEAR     54  50  86 W3        30.09S
FREEPORT*      CLEAR     52  49  90 W5        30.10S
ROCHELLE*      CLEAR     51  50  96 W7        30.09S
DE KALB*       CLEAR     54  49  86 W8        30.08F
PERU*          PTCLDY    55  49  83 W5        30.10S
$$

ILZ005-006-012>014-019>023-250800-
NORTHEAST ILLINOIS

CITY           SKY/WX    TMP DP  RH WIND       PRES   REMARKS
CHICAGO-OHARE  PTCLDY    57  50  77 W8        30.05S
CHICAGO-MIDWAY MOCLDY    62  49  62 W10       30.05S
AURORA         CLEAR     52  50  93 W5        30.08S
LANSING*       CLOUDY    59  47  64 W5        30.05F
JOLIET*        PTCLDY    61  51  70 W5        30.08S
WAUKEGAN       CLEAR     55  48  77 VRB5      30.03F
DUPAGE AIRPORT CLEAR     54  51  90 W8        30.06S
WHEELING       CLEAR     58  49  72 W9        30.06F
MORRIS*        PTCLDY    55  50  84 W5        30.07S
ROMEOVILLE*    MOCLDY    58  49  70 W7        30.07S
NORTHERLY ISL    N/A     63  46  54 W12         N/A
$$

LMZ740>746-250800-
SOUTHERN LAKE MICHIGAN

STATION/POSITION SKY/WX   TEMP    WIND        PRES    VSBY  WAVE
                          AIR SEA DIR/SP/G                  HT/PER
                          (F)     (DEG/KT/KT) (MB)    (MI)  (FT/S)
SOUTHERN BUOY              62 62  310/ 21/ 25 1015.8          3/ 5
WILMETTE HARBOR            61 65  270/ 14/ 19   N/A           1/ 2
HARRISON CRIB              63     270/ 18/ 20   N/A
BURNHAM HARBOR             62                   N/A
CALUMET HARBOR             64     230/  5/  8 1017.0F
BURNS HARBOR               65     240/ 11/ 13 1017.9F
MICHIGAN CITY              63     210/  8/  9   N/A
MICHIGAN CITY 6N           65 67  240/ 12/ 16   N/A           2/ 4
ST. JOSEPH                 65 68  250/ 12/ 14 1016.7F         2/ 4
$$

ILZ025>027-034>036-040-047-049-050-058-095>099-250800-
WEST-CENTRAL ILLINOIS

CITY           SKY/WX    TMP DP  RH WIND       PRES   REMARKS
QUINCY         PTCLDY    61  50  67 NW8       30.15R
GALESBURG*     PTCLDY    53  49  87 CALM      30.14R
MACOMB*        CLEAR     55  50  82 NW7       30.16R
JACKSONVILLE*  CLEAR     59  47  64 SW6       30.13S
PITTSFIELD*    CLEAR     64  49  58 SW6       30.15S
$$

ILZ028>032-037-038-041>044-048-051>054-059>061-250800-
CENTRAL ILLINOIS

CITY           SKY/WX    TMP DP  RH WIND       PRES   REMARKS
PONTIAC        MOCLDY    60  51  72 W6        30.10S
BLOOMINGTON    MOCLDY    60  45  57 W10       30.12R
DECATUR        PTCLDY    57  48  72 SW8       30.12S
PEORIA         PTCLDY    59  48  67 NW3       30.12S
LACON*         MOCLDY    55  51  89 CALM      30.10S
LINCOLN*       CLEAR     62  47  60 SW3       30.10S
SPRINGFIELD    PTCLDY    62  47  57 SW7       30.12F
TAYLORVILLE    PTCLDY    55  50  83 S6        30.13F
$$

ILZ033-039-045-046-055>057-062-063-250800-
EAST-CENTRAL ILLINOIS

CITY           SKY/WX    TMP DP  RH WIND       PRES   REMARKS
CHAMPAIGN      PTCLDY    56  46  69 SW8       30.11F
MATTOON        PTCLDY    61  49  64 SW7       30.12F
PARIS*         CLEAR     53  49  87 SW7       30.12F
$$

ILZ079-100>102-250800-
SOUTHWEST ILLINOIS

CITY           SKY/WX    TMP DP  RH WIND       PRES   REMARKS
ALTON          PTCLDY    57  53  86 S5        30.16F
BELLEVILLE     CLEAR     58  51  77 CALM      30.17F
CAHOKIA*       CLEAR     56  49  77 CALM      30.16F
SPARTA*        CLEAR     57  49  74 CALM      30.19S
$$

ILZ064>066-069>071-074>076-080>082-084>086-088>090-092>094-250800-
SOUTH-CENTRAL ILLINOIS

CITY           SKY/WX    TMP DP  RH WIND       PRES   REMARKS
CARBONDALE     PTCLDY    58  57  97 CALM      30.18F
CAIRO*         CLEAR     61  60  94 CALM      30.19S
EFFINGHAM*     PTCLDY    56  53  91 CALM      30.16F
MARION         CLEAR     57  57 100 CALM      30.19S
MT. VERNON     CLEAR     55  55 100 CALM      30.17F FOG
CENTRALIA*     CLEAR     57  52  82 CALM      30.16F
SALEM*         CLEAR     58  52  80 CALM      30.16F
METROPOLIS*    PTCLDY    60  58  95 CALM      30.18F
$$

ILZ067-068-072-073-078-083-087-091-250800-
SOUTHEAST ILLINOIS

CITY           SKY/WX    TMP DP  RH WIND       PRES   REMARKS
LAWRENCEVILLE  PTCLDY    59  55  87 CALM      30.15S
FLORA*         PTCLDY    60  51  73 W3        30.16F
FAIRFIELD*     CLEAR     56  55  95 CALM      30.16S
HARRISBURG*    CLEAR     58  57  97 CALM      30.18S
ROBINSON*      CLEAR     55  52  89 CALM      30.15F
CARMI*         PTCLDY    58  56  91 W5        30.16S
$$

ABBREVIATIONS USED IN REMARKS
   TC - TEMPERATURE IN CELSIUS
  WCI - WIND CHILL INDEX
   HX - HEAT INDEX
  VSB - VISIBILITY
$$





USA.gov is the U.S. government's official web portal to all federal, state and local government web resources and services.